Station Historical Data
Daily Summary for February 27, 2017 Units:  Metric    English   Both
« Previous Day
Next Day »
Daily Weekly Monthly Yearly Custom
  High: Low: Average:
Temperature: 7.8 °C 0.4 °C 4.2 °C
Dew Point: -1.6 °C -6.4 °C -3.9 °C
Humidity: 76% 45% 57%
Wind Speed: 27.4km/h 0km/h 9.8km/h
Wind Gust: 40.2km/h - -
Wind- - SW
Pressure: 1026 hPa 1019.9 hPa -
Precipitation: 0 mm    
Historical Graphs
 
 
Tabular Data for February 27, 2017
Time Temperature Dew Point Pressure Wind Wind Speed Wind Gust Humidity Rainfall Rate (Hourly)
00:04 2 °C -6.1 °C 1019.9 hPa SSW 8 km/h 19.3 km/h 55% 0 mm
00:09 1.9 °C -6.2 °C 1019.9 hPa SSW 8 km/h 19.3 km/h 55% 0 mm
00:14 1.9 °C -6.2 °C 1019.9 hPa SW 8 km/h 16.1 km/h 55% 0 mm
00:19 1.9 °C -6.2 °C 1019.9 hPa WSW 8 km/h 19.3 km/h 55% 0 mm
00:24 2 °C -6.1 °C 1019.9 hPa SW 9.7 km/h 17.7 km/h 55% 0 mm
00:29 2 °C -6.1 °C 1019.9 hPa South 6.4 km/h 17.7 km/h 55% 0 mm
00:34 2.1 °C -6 °C 1019.9 hPa SSW 14.5 km/h 20.9 km/h 55% 0 mm
00:39 2.2 °C -6.2 °C 1019.9 hPa South 12.9 km/h 17.7 km/h 54% 0 mm
00:44 2.4 °C -5.9 °C 1019.9 hPa SW 11.3 km/h 25.7 km/h 54% 0 mm
00:49 2.7 °C -5.7 °C 1019.9 hPa West 17.7 km/h 25.7 km/h 54% 0 mm
00:54 2.9 °C -5.8 °C 1019.9 hPa SW 19.3 km/h 22.5 km/h 53% 0 mm
00:59 3 °C -5.9 °C 1020.2 hPa SW 12.9 km/h 27.4 km/h 52% 0 mm
01:04 3 °C -5.9 °C 1020.2 hPa SW 14.5 km/h 27.4 km/h 52% 0 mm
01:09 3 °C -5.9 °C 1020.2 hPa SW 12.9 km/h 30.6 km/h 52% 0 mm
01:14 3 °C -5.9 °C 1020.2 hPa SW 12.9 km/h 30.6 km/h 52% 0 mm
01:19 3 °C -5.9 °C 1020.2 hPa SW 12.9 km/h 25.7 km/h 52% 0 mm
01:24 3.1 °C -5.8 °C 1020.2 hPa South 11.3 km/h 22.5 km/h 52% 0 mm
01:29 3.2 °C -5.8 °C 1020.2 hPa SW 14.5 km/h 29 km/h 52% 0 mm
01:34 3.1 °C -5.8 °C 1020.5 hPa SW 8 km/h 25.7 km/h 52% 0 mm
01:39 3.2 °C -5.8 °C 1020.2 hPa WSW 16.1 km/h 24.1 km/h 52% 0 mm
01:44 3.3 °C -5.7 °C 1020.2 hPa SW 11.3 km/h 35.4 km/h 52% 0 mm
01:49 3.3 °C -5.8 °C 1020.5 hPa SW 17.7 km/h 29 km/h 51% 0 mm
01:54 3.4 °C -5.8 °C 1020.5 hPa South 9.7 km/h 25.7 km/h 51% 0 mm
01:59 3.4 °C -5.8 °C 1020.5 hPa SW 8 km/h 25.7 km/h 51% 0 mm
02:04 3.4 °C -6.1 °C 1020.5 hPa SW 14.5 km/h 30.6 km/h 50% 0 mm
02:09 3.5 °C -5.7 °C 1020.5 hPa WSW 17.7 km/h 25.7 km/h 51% 0 mm
02:14 3.5 °C -5.7 °C 1020.5 hPa SW 14.5 km/h 27.4 km/h 51% 0 mm
02:19 3.5 °C -5.4 °C 1020.5 hPa SW 16.1 km/h 29 km/h 52% 0 mm
02:24 3.5 °C -5.4 °C 1020.5 hPa SW 16.1 km/h 29 km/h 52% 0 mm
02:29 3.5 °C -5.4 °C 1020.5 hPa SW 14.5 km/h 27.4 km/h 52% 0 mm
02:34 3.4 °C -5.5 °C 1020.5 hPa WSW 9.7 km/h 24.1 km/h 52% 0 mm
02:39 3.5 °C -5.4 °C 1020.5 hPa SW 20.9 km/h 32.2 km/h 52% 0 mm
02:44 3.5 °C -5.4 °C 1020.5 hPa South 19.3 km/h 32.2 km/h 52% 0 mm
02:49 3.6 °C -5.7 °C 1020.5 hPa West 11.3 km/h 22.5 km/h 51% 0 mm
02:54 3.6 °C -5.7 °C 1020.5 hPa WSW 20.9 km/h 25.7 km/h 51% 0 mm
02:59 3.5 °C -5.4 °C 1020.5 hPa SW 11.3 km/h 24.1 km/h 52% 0 mm
03:04 3.5 °C -5.7 °C 1020.5 hPa SW 16.1 km/h 30.6 km/h 51% 0 mm
03:09 3.6 °C -5.7 °C 1020.5 hPa SW 16.1 km/h 30.6 km/h 51% 0 mm
03:14 3.6 °C -5.7 °C 1020.5 hPa SW 16.1 km/h 29 km/h 51% 0 mm
03:19 3.6 °C -5.7 °C 1020.5 hPa SW 14.5 km/h 25.7 km/h 51% 0 mm
03:24 3.6 °C -5.9 °C 1020.5 hPa SW 14.5 km/h 29 km/h 50% 0 mm
03:29 3.6 °C -5.7 °C 1020.5 hPa SW 12.9 km/h 29 km/h 51% 0 mm
03:34 3.6 °C -5.7 °C 1020.5 hPa SW 14.5 km/h 27.4 km/h 51% 0 mm
03:39 3.6 °C -5.7 °C 1020.9 hPa SW 14.5 km/h 27.4 km/h 51% 0 mm
03:44 3.6 °C -5.7 °C 1020.9 hPa SSW 8 km/h 22.5 km/h 51% 0 mm
03:49 3.6 °C -5.4 °C 1020.9 hPa SSW 4.8 km/h 29 km/h 52% 0 mm
03:54 3.4 °C -5.2 °C 1020.9 hPa SW 19.3 km/h 25.7 km/h 53% 0 mm
03:59 3.4 °C -5.1 °C 1020.9 hPa WSW 9.7 km/h 27.4 km/h 54% 0 mm
04:04 3.5 °C -4.9 °C 1020.9 hPa WSW 12.9 km/h 27.4 km/h 54% 0 mm
04:09 3.6 °C -5.2 °C 1020.9 hPa SSW 12.9 km/h 29 km/h 53% 0 mm
04:14 3.6 °C -4.8 °C 1020.9 hPa SW 16.1 km/h 30.6 km/h 54% 0 mm
04:19 3.6 °C -4.8 °C 1020.9 hPa SW 17.7 km/h 30.6 km/h 54% 0 mm
04:24 3.6 °C -4.8 °C 1020.9 hPa SW 9.7 km/h 29 km/h 54% 0 mm
04:29 3.6 °C -4.8 °C 1020.9 hPa SW 14.5 km/h 29 km/h 54% 0 mm
04:34 3.6 °C -4.8 °C 1020.9 hPa WSW 11.3 km/h 32.2 km/h 54% 0 mm
04:39 3.6 °C -5.1 °C 1020.9 hPa WSW 16.1 km/h 32.2 km/h 53% 0 mm
04:44 3.6 °C -5.1 °C 1020.9 hPa WSW 9.7 km/h 29 km/h 53% 0 mm
04:49 3.6 °C -5.4 °C 1021.2 hPa WSW 12.9 km/h 22.5 km/h 52% 0 mm
04:54 3.6 °C -5.6 °C 1021.2 hPa WSW 6.4 km/h 27.4 km/h 51% 0 mm
04:59 3.7 °C -5.6 °C 1021.2 hPa West 16.1 km/h 30.6 km/h 51% 0 mm
05:04 3.6 °C -5.7 °C 1021.2 hPa West 9.7 km/h 19.3 km/h 51% 0 mm
05:09 3.4 °C -5.8 °C 1021.2 hPa South 8 km/h 19.3 km/h 51% 0 mm
05:14 3.2 °C -6 °C 1021.2 hPa SW 9.7 km/h 20.9 km/h 51% 0 mm
05:19 3.1 °C -6.1 °C 1021.2 hPa SW 9.7 km/h 22.5 km/h 51% 0 mm
05:24 3 °C -6.4 °C 1021.2 hPa SW 11.3 km/h 24.1 km/h 50% 0 mm
05:29 3.1 °C -6.1 °C 1021.2 hPa SW 12.9 km/h 27.4 km/h 51% 0 mm
05:34 3.2 °C -5.9 °C 1021.6 hPa SW 14.5 km/h 24.1 km/h 51% 0 mm
05:39 3.3 °C -6.2 °C 1021.6 hPa SSW 6.4 km/h 29 km/h 50% 0 mm
05:44 3.3 °C -5.9 °C 1021.6 hPa SW 14.5 km/h 29 km/h 51% 0 mm
05:49 3.3 °C -5.8 °C 1021.6 hPa SW 12.9 km/h 25.7 km/h 51% 0 mm
05:54 3.3 °C -6.1 °C 1021.6 hPa SSW 27.4 km/h 27.4 km/h 50% 0 mm
05:59 3.3 °C -5.8 °C 1021.9 hPa WSW 11.3 km/h 22.5 km/h 51% 0 mm
06:04 3.4 °C -5.8 °C 1021.9 hPa West 14.5 km/h 24.1 km/h 51% 0 mm
06:09 3.5 °C -5.7 °C 1021.9 hPa South 16.1 km/h 29 km/h 51% 0 mm
06:14 3.6 °C -5.7 °C 1021.9 hPa SW 14.5 km/h 29 km/h 51% 0 mm
06:19 3.6 °C -5.7 °C 1022.2 hPa SW 14.5 km/h 30.6 km/h 51% 0 mm
06:24 3.5 °C -5.7 °C 1021.9 hPa SW 14.5 km/h 30.6 km/h 51% 0 mm
06:29 3.6 °C -5.7 °C 1022.2 hPa SW 11.3 km/h 25.7 km/h 51% 0 mm
06:34 3.4 °C -5.5 °C 1022.2 hPa WSW 9.7 km/h 27.4 km/h 52% 0 mm
06:39 3.3 °C -5.4 °C 1022.6 hPa WSW 9.7 km/h 25.7 km/h 53% 0 mm
06:44 3.3 °C -5.4 °C 1022.6 hPa SW 12.9 km/h 25.7 km/h 53% 0 mm
06:49 3.4 °C -5.1 °C 1022.6 hPa SW 12.9 km/h 25.7 km/h 54% 0 mm
06:54 3.6 °C -5.2 °C 1022.6 hPa SW 14.5 km/h 29 km/h 53% 0 mm
06:59 3.7 °C -5.1 °C 1022.9 hPa SW 14.5 km/h 32.2 km/h 53% 0 mm
07:04 3.6 °C -5.1 °C 1022.9 hPa SE 9.7 km/h 27.4 km/h 53% 0 mm
07:09 3.6 °C -5.2 °C 1022.9 hPa South 8 km/h 25.7 km/h 53% 0 mm
07:14 3.5 °C -5.2 °C 1023.2 hPa SW 14.5 km/h 19.3 km/h 53% 0 mm
07:19 3.4 °C -5.2 °C 1023.2 hPa SW 12.9 km/h 25.7 km/h 53% 0 mm
07:24 3.3 °C -5.3 °C 1023.2 hPa SW 11.3 km/h 25.7 km/h 53% 0 mm
07:29 3.2 °C -5.4 °C 1023.2 hPa SW 11.3 km/h 22.5 km/h 53% 0 mm
07:34 3.1 °C -5.6 °C 1023.2 hPa WSW 8 km/h 17.7 km/h 53% 0 mm
07:39 2.9 °C -5.4 °C 1023.2 hPa SW 17.7 km/h 19.3 km/h 54% 0 mm
07:44 2.9 °C -5.7 °C 1023.2 hPa SW 8 km/h 17.7 km/h 53% 0 mm
07:49 2.8 °C -5.6 °C 1023.2 hPa SW 9.7 km/h 17.7 km/h 54% 0 mm
07:54 2.9 °C -5.5 °C 1023.6 hPa SW 8 km/h 17.7 km/h 54% 0 mm
07:59 3.1 °C -5.4 °C 1023.6 hPa SW 9.7 km/h 17.7 km/h 54% 0 mm
08:04 3.3 °C -5.1 °C 1023.6 hPa SW 9.7 km/h 16.1 km/h 54% 0 mm
08:09 3.6 °C -4.9 °C 1023.6 hPa WSW 8 km/h 16.1 km/h 54% 0 mm
08:14 3.8 °C -5.2 °C 1023.2 hPa SSW 8 km/h 32.2 km/h 52% 0 mm
08:19 4.1 °C -4.9 °C 1023.6 hPa WSW 17.7 km/h 20.9 km/h 52% 0 mm
08:24 4.3 °C -4.7 °C 1023.6 hPa SW 11.3 km/h 20.9 km/h 52% 0 mm
08:29 4.6 °C -4.7 °C 1023.6 hPa SW 11.3 km/h 22.5 km/h 51% 0 mm
08:34 4.8 °C -4.4 °C 1023.6 hPa SW 14.5 km/h 20.9 km/h 51% 0 mm
08:39 5.1 °C -4.5 °C 1023.6 hPa SW 17.7 km/h 30.6 km/h 50% 0 mm
08:44 5.3 °C -4.6 °C 1023.6 hPa SW 16.1 km/h 25.7 km/h 49% 0 mm
08:49 5.4 °C -4.5 °C 1023.6 hPa SW 14.5 km/h 30.6 km/h 49% 0 mm
08:54 5.4 °C -4.4 °C 1023.6 hPa SW 16.1 km/h 30.6 km/h 49% 0 mm
08:59 5.5 °C -4.4 °C 1023.6 hPa WSW 14.5 km/h 30.6 km/h 49% 0 mm
09:04 5.5 °C -4.1 °C 1023.9 hPa WSW 16.1 km/h 32.2 km/h 50% 0 mm
09:09 5.7 °C -4.2 °C 1023.9 hPa WSW 14.5 km/h 32.2 km/h 49% 0 mm
09:14 5.6 °C -4.6 °C 1023.9 hPa NW 12.9 km/h 30.6 km/h 48% 0 mm
09:19 5.7 °C -4.2 °C 1023.9 hPa West 17.7 km/h 29 km/h 49% 0 mm
09:24 5.8 °C -4.3 °C 1023.9 hPa WSW 16.1 km/h 29 km/h 48% 0 mm
09:29 5.9 °C -4.3 °C 1023.9 hPa WSW 14.5 km/h 30.6 km/h 48% 0 mm
09:34 5.8 °C -4.3 °C 1023.9 hPa WSW 16.1 km/h 30.6 km/h 48% 0 mm
09:39 5.8 °C -4.3 °C 1023.9 hPa WSW 17.7 km/h 30.6 km/h 48% 0 mm
09:44 5.9 °C -4.2 °C 1024.3 hPa NW 16.1 km/h 35.4 km/h 48% 0 mm
09:49 6.1 °C -4.2 °C 1024.3 hPa SW 25.7 km/h 33.8 km/h 48% 0 mm
09:54 6.2 °C -4 °C 1024.3 hPa WSW 8 km/h 32.2 km/h 48% 0 mm
09:59 6.2 °C -4.6 °C 1024.3 hPa WSW 16.1 km/h 32.2 km/h 46% 0 mm
10:04 6.3 °C -4.2 °C 1024.3 hPa WSW 17.7 km/h 30.6 km/h 47% 0 mm
10:09 6.3 °C -4.5 °C 1024.3 hPa SW 11.3 km/h 29 km/h 46% 0 mm
10:14 6.7 °C -4.2 °C 1024.6 hPa SW 16.1 km/h 25.7 km/h 46% 0 mm
10:19 6.8 °C -4.3 °C 1024.6 hPa SW 12.9 km/h 27.4 km/h 45% 0 mm
10:24 6.9 °C -3.9 °C 1024.6 hPa WSW 9.7 km/h 29 km/h 46% 0 mm
10:29 6.7 °C -4.1 °C 1024.6 hPa WSW 14.5 km/h 38.6 km/h 46% 0 mm
10:34 6.8 °C -3.8 °C 1024.9 hPa WSW 16.1 km/h 38.6 km/h 47% 0 mm
10:39 7.1 °C -4.1 °C 1024.9 hPa WSW 16.1 km/h 32.2 km/h 45% 0 mm
10:44 6.8 °C -4.1 °C 1024.9 hPa WSW 16.1 km/h 32.2 km/h 46% 0 mm
10:49 7 °C -3.6 °C 1024.9 hPa SW 20.9 km/h 33.8 km/h 47% 0 mm
10:54 7.2 °C -3.4 °C 1024.9 hPa SW 19.3 km/h 30.6 km/h 47% 0 mm
10:59 7 °C -3.8 °C 1024.9 hPa WSW 14.5 km/h 30.6 km/h 46% 0 mm
11:04 7 °C -3.6 °C 1024.9 hPa WSW 16.1 km/h 30.6 km/h 47% 0 mm
11:09 7 °C -3.6 °C 1024.9 hPa WSW 16.1 km/h 30.6 km/h 47% 0 mm
11:14 6.8 °C -3.7 °C 1024.9 hPa South 16.1 km/h 33.8 km/h 47% 0 mm
11:19 6.9 °C -3.6 °C 1024.9 hPa SW 20.9 km/h 32.2 km/h 47% 0 mm
11:24 6.8 °C -3.2 °C 1024.9 hPa WSW 12.9 km/h 33.8 km/h 49% 0 mm
11:29 7.1 °C -3.4 °C 1024.9 hPa WSW 17.7 km/h 32.2 km/h 47% 0 mm
11:34 6.9 °C -3.3 °C 1025.3 hPa SW 17.7 km/h 32.2 km/h 48% 0 mm
11:39 6.9 °C -3.4 °C 1025.3 hPa SW 17.7 km/h 32.2 km/h 48% 0 mm
11:44 7.2 °C -2.8 °C 1025.3 hPa SW 11.3 km/h 27.4 km/h 49% 0 mm
11:49 7.2 °C -3.4 °C 1025.3 hPa WSW 22.5 km/h 38.6 km/h 47% 0 mm
11:54 7.1 °C -3.2 °C 1025.3 hPa WSW 14.5 km/h 32.2 km/h 48% 0 mm
11:59 7 °C -3.6 °C 1025.3 hPa WSW 25.7 km/h 32.2 km/h 47% 0 mm
12:04 6.9 °C -3.4 °C 1025.3 hPa WSW 8 km/h 32.2 km/h 48% 0 mm
12:09 7.1 °C -3.5 °C 1025.3 hPa WSW 17.7 km/h 40.2 km/h 47% 0 mm
12:14 7.4 °C -2.7 °C 1024.9 hPa WSW 17.7 km/h 40.2 km/h 49% 0 mm
12:19 7.3 °C -3.3 °C 1024.9 hPa WSW 24.1 km/h 35.4 km/h 47% 0 mm
12:24 7.2 °C -3.4 °C 1024.9 hPa SW 14.5 km/h 32.2 km/h 47% 0 mm
12:29 7.1 °C -3.4 °C 1024.9 hPa WSW 19.3 km/h 29 km/h 47% 0 mm
12:34 7.3 °C -3.3 °C 1024.9 hPa SW 17.7 km/h 33.8 km/h 47% 0 mm
12:39 7.4 °C -3.2 °C 1024.9 hPa SW 17.7 km/h 33.8 km/h 47% 0 mm
12:44 7.3 °C -3.6 °C 1024.9 hPa NW 17.7 km/h 32.2 km/h 46% 0 mm
12:49 7.3 °C -3.3 °C 1024.9 hPa WSW 9.7 km/h 32.2 km/h 47% 0 mm
12:54 7.3 °C -3 °C 1024.9 hPa SW 14.5 km/h 30.6 km/h 48% 0 mm
13:04 7.6 °C -2.4 °C 1024.6 hPa SW 12.9 km/h 29 km/h 49% 0 mm
13:09 7.6 °C -3.3 °C 1024.6 hPa WSW 14.5 km/h 32.2 km/h 46% 0 mm
13:14 7.3 °C -3.3 °C 1024.6 hPa WSW 14.5 km/h 32.2 km/h 47% 0 mm
13:19 7.2 °C -3.3 °C 1024.6 hPa WSW 17.7 km/h 35.4 km/h 47% 0 mm
13:24 7.5 °C -3.1 °C 1024.6 hPa WSW 16.1 km/h 35.4 km/h 47% 0 mm
13:29 7.3 °C -3.6 °C 1024.3 hPa WSW 14.5 km/h 27.4 km/h 46% 0 mm
13:34 7.2 °C -3.4 °C 1024.6 hPa WSW 16.1 km/h 30.6 km/h 47% 0 mm
13:39 7.6 °C -3 °C 1024.3 hPa SW 11.3 km/h 24.1 km/h 47% 0 mm
13:44 7.3 °C -2.9 °C 1024.3 hPa SW 14.5 km/h 27.4 km/h 48% 0 mm
13:49 7.3 °C -3 °C 1024.3 hPa WSW 14.5 km/h 27.4 km/h 48% 0 mm
13:54 7.3 °C -2.7 °C 1024.3 hPa SW 9.7 km/h 24.1 km/h 49% 0 mm
13:59 7.6 °C -2.5 °C 1024.3 hPa West 9.7 km/h 20.9 km/h 49% 0 mm
14:04 7.6 °C -2.7 °C 1024.3 hPa WNW 6.4 km/h 22.5 km/h 48% 0 mm
14:09 7.7 °C -2.4 °C 1024.3 hPa SW 11.3 km/h 24.1 km/h 49% 0 mm
14:14 7.6 °C -2.7 °C 1024.3 hPa SW 11.3 km/h 22.5 km/h 48% 0 mm
14:19 7.4 °C -2.3 °C 1024.3 hPa WSW 12.9 km/h 22.5 km/h 50% 0 mm
14:24 7.8 °C -2 °C 1024.3 hPa WSW 12.9 km/h 22.5 km/h 50% 0 mm
14:29 7.5 °C -2.3 °C 1024.3 hPa WSW 12.9 km/h 22.5 km/h 50% 0 mm
14:34 7.3 °C -2.7 °C 1024.3 hPa WSW 14.5 km/h 30.6 km/h 49% 0 mm
14:39 7.2 °C -2.6 °C 1024.3 hPa WSW 16.1 km/h 30.6 km/h 50% 0 mm
14:44 7.3 °C -2.4 °C 1024.3 hPa WSW 14.5 km/h 27.4 km/h 50% 0 mm
14:49 7.5 °C -2.3 °C 1024.6 hPa SW 8 km/h 19.3 km/h 50% 0 mm
14:54 7.4 °C -2.7 °C 1024.6 hPa SW 17.7 km/h 27.4 km/h 49% 0 mm
14:59 7.2 °C -3.1 °C 1024.6 hPa SSW 14.5 km/h 27.4 km/h 48% 0 mm
15:04 7.3 °C -2.2 °C 1024.6 hPa SSW 9.7 km/h 29 km/h 51% 0 mm
15:09 6.8 °C -2.4 °C 1024.6 hPa WSW 8 km/h 25.7 km/h 52% 0 mm
15:14 6.9 °C -2.2 °C 1024.6 hPa SW 14.5 km/h 25.7 km/h 52% 0 mm
15:19 7.3 °C -1.7 °C 1024.6 hPa SW 11.3 km/h 22.5 km/h 53% 0 mm
15:24 7.2 °C -1.8 °C 1024.6 hPa SW 11.3 km/h 22.5 km/h 53% 0 mm
15:29 6.7 °C -2.2 °C 1024.6 hPa SW 12.9 km/h 22.5 km/h 53% 0 mm
15:34 6.7 °C -1.9 °C 1024.9 hPa WSW 12.9 km/h 24.1 km/h 54% 0 mm
15:39 6.8 °C -1.9 °C 1024.9 hPa SW 9.7 km/h 25.7 km/h 54% 0 mm
15:44 6.7 °C -1.7 °C 1024.9 hPa SW 11.3 km/h 25.7 km/h 55% 0 mm
15:49 6.6 °C -1.8 °C 1024.9 hPa WSW 11.3 km/h 19.3 km/h 55% 0 mm
15:54 6.6 °C -1.6 °C 1024.9 hPa West 6.4 km/h 16.1 km/h 56% 0 mm
15:59 6.9 °C -1.7 °C 1024.9 hPa WSW 4.8 km/h 12.9 km/h 54% 0 mm
16:04 6.8 °C -1.8 °C 1024.9 hPa WSW 9.7 km/h 17.7 km/h 54% 0 mm
16:09 6.8 °C -2.1 °C 1024.9 hPa SSW 11.3 km/h 17.7 km/h 53% 0 mm
16:14 6.8 °C -1.9 °C 1024.9 hPa SW 9.7 km/h 17.7 km/h 54% 0 mm
16:19 6.6 °C -2.1 °C 1024.9 hPa SW 9.7 km/h 17.7 km/h 54% 0 mm
16:24 6.4 °C -1.9 °C 1024.9 hPa SW 8 km/h 17.7 km/h 55% 0 mm
16:29 6.3 °C -1.8 °C 1025.3 hPa WSW 6.4 km/h 14.5 km/h 56% 0 mm
16:34 6.3 °C -1.9 °C 1025.3 hPa WSW 9.7 km/h 14.5 km/h 56% 0 mm
16:39 6.3 °C -1.9 °C 1025.3 hPa SW 11.3 km/h 16.1 km/h 56% 0 mm
16:44 6.2 °C -1.9 °C 1025.3 hPa SW 8 km/h 19.3 km/h 56% 0 mm
16:49 6.2 °C -1.9 °C 1025.3 hPa WSW 8 km/h 19.3 km/h 56% 0 mm
16:54 6.1 °C -1.8 °C 1025.3 hPa SW 8 km/h 16.1 km/h 57% 0 mm
16:59 6 °C -1.9 °C 1025.3 hPa SSW 4.8 km/h 14.5 km/h 57% 0 mm
17:04 5.8 °C -1.8 °C 1025.3 hPa WSW 9.7 km/h 16.1 km/h 58% 0 mm
17:09 5.6 °C -1.8 °C 1025.3 hPa WSW 6.4 km/h 12.9 km/h 59% 0 mm
17:14 5.3 °C -1.8 °C 1025.3 hPa SSW 6.4 km/h 14.5 km/h 60% 0 mm
17:19 5 °C -1.9 °C 1025.3 hPa SSW 6.4 km/h 14.5 km/h 61% 0 mm
17:24 4.8 °C -1.9 °C 1025.3 hPa SW 6.4 km/h 16.1 km/h 62% 0 mm
17:29 4.6 °C -1.8 °C 1025.3 hPa WSW 4.8 km/h 12.9 km/h 63% 0 mm
17:34 4.5 °C -1.9 °C 1025.3 hPa WSW 6.4 km/h 9.7 km/h 63% 0 mm
17:39 4.4 °C -1.8 °C 1025.3 hPa SW 8 km/h 9.7 km/h 64% 0 mm
17:44 4.2 °C -2 °C 1025.3 hPa SSW 3.2 km/h 9.7 km/h 64% 0 mm
17:49 4.1 °C -2.1 °C 1025.3 hPa SW 6.4 km/h 11.3 km/h 64% 0 mm
17:54 4 °C -2.2 °C 1025.6 hPa SW 4.8 km/h 11.3 km/h 64% 0 mm
17:59 3.9 °C -2.1 °C 1025.6 hPa SW 4.8 km/h 11.3 km/h 65% 0 mm
18:04 3.8 °C -2.2 °C 1025.6 hPa SW 6.4 km/h 11.3 km/h 65% 0 mm
18:09 3.7 °C -2.3 °C 1025.6 hPa WSW 6.4 km/h 6.4 km/h 65% 0 mm
18:14 3.6 °C -2.2 °C 1025.6 hPa SW 1.6 km/h 8 km/h 66% 0 mm
18:19 3.4 °C -2.4 °C 1025.6 hPa WSW 3.2 km/h 4.8 km/h 66% 0 mm
18:24 3.2 °C -2.3 °C 1025.6 hPa SW 4.8 km/h 6.4 km/h 67% 0 mm
18:29 3.1 °C -2.4 °C 1025.6 hPa WSW 1.6 km/h 6.4 km/h 67% 0 mm
18:34 3 °C -2.6 °C 1025.6 hPa SW 1.6 km/h 4.8 km/h 67% 0 mm
18:39 2.9 °C -2.4 °C 1026 hPa SW 1.6 km/h 4.8 km/h 68% 0 mm
18:44 2.8 °C -2.5 °C 1025.6 hPa WSW 1.6 km/h 3.2 km/h 68% 0 mm
18:49 2.7 °C -2.6 °C 1025.6 hPa SW 1.6 km/h 4.8 km/h 68% 0 mm
18:54 2.7 °C -2.7 °C 1025.6 hPa SW 1.6 km/h 4.8 km/h 68% 0 mm
18:59 2.7 °C -2.4 °C 1025.6 hPa SW 3.2 km/h 4.8 km/h 69% 0 mm
19:04 2.6 °C -2.5 °C 1025.6 hPa SW 1.6 km/h 4.8 km/h 69% 0 mm
19:09 2.6 °C -2.6 °C 1025.6 hPa SW 1.6 km/h 4.8 km/h 69% 0 mm
19:14 2.5 °C -2.6 °C 1025.6 hPa SW 1.6 km/h 3.2 km/h 69% 0 mm
19:19 2.4 °C -2.7 °C 1025.6 hPa SW 1.6 km/h 3.2 km/h 69% 0 mm
19:24 2.3 °C -2.6 °C 1025.6 hPa Calm   3.2 km/h 70% 0 mm
19:29 2.2 °C -2.7 °C 1025.6 hPa Calm   3.2 km/h 70% 0 mm
19:34 2.2 °C -2.7 °C 1025.6 hPa Calm   1.6 km/h 70% 0 mm
19:39 2.1 °C -2.8 °C 1025.6 hPa Calm     70% 0 mm
19:44 2 °C -2.9 °C 1025.6 hPa Calm     70% 0 mm
19:49 2 °C -2.7 °C 1025.6 hPa Calm     71% 0 mm
19:54 1.8 °C -3.1 °C 1025.6 hPa Calm     70% 0 mm
19:59 1.7 °C -3 °C 1025.6 hPa Calm     71% 0 mm
20:04 1.6 °C -3.1 °C 1025.6 hPa Calm     71% 0 mm
20:09 1.4 °C -3.1 °C 1025.6 hPa Calm     72% 0 mm
20:14 1.3 °C -3.2 °C 1025.6 hPa Calm     72% 0 mm
20:19 1.2 °C -3.2 °C 1025.6 hPa Calm     73% 0 mm
20:24 1.1 °C -3.2 °C 1025.6 hPa Calm     73% 0 mm
20:29 0.9 °C -3.2 °C 1025.6 hPa Calm     74% 0 mm
20:34 0.9 °C -3.2 °C 1025.6 hPa Calm     74% 0 mm
20:39 0.8 °C -3.1 °C 1025.6 hPa Calm     75% 0 mm
20:44 0.8 °C -3.1 °C 1025.6 hPa Calm     75% 0 mm
20:49 0.7 °C -3.2 °C 1025.6 hPa Calm     75% 0 mm
20:54 0.6 °C -3.1 °C 1025.6 hPa Calm     76% 0 mm
20:59 0.6 °C -3.1 °C 1025.6 hPa Calm     76% 0 mm
21:04 0.6 °C -3.2 °C 1025.6 hPa Calm     76% 0 mm
21:09 0.5 °C -3.2 °C 1025.6 hPa Calm     76% 0 mm
21:14 0.4 °C -3.3 °C 1025.6 hPa Calm     76% 0 mm
21:19 0.4 °C -3.3 °C 1025.6 hPa Calm     76% 0 mm
21:24 0.6 °C -3.1 °C 1025.6 hPa Calm     76% 0 mm
21:29 0.8 °C -3.1 °C 1025.6 hPa Calm     75% 0 mm
21:34 1.2 °C -3.2 °C 1025.6 hPa Calm     73% 0 mm
21:39 1.3 °C -3 °C 1025.6 hPa Calm     73% 0 mm
21:44 1.4 °C -3.1 °C 1025.6 hPa Calm     72% 0 mm
21:49 1.1 °C -3.4 °C 1025.6 hPa Calm     72% 0 mm
21:54 1.2 °C -3.3 °C 1025.6 hPa Calm     72% 0 mm
21:59 1.3 °C -3.2 °C 1025.6 hPa Calm     72% 0 mm
22:04 1.1 °C -3.2 °C 1025.6 hPa Calm     73% 0 mm
22:09 0.8 °C -3.3 °C 1025.6 hPa Calm     74% 0 mm
22:14 0.8 °C -3.3 °C 1025.6 hPa Calm     74% 0 mm
22:19 1 °C -3.1 °C 1025.6 hPa Calm     74% 0 mm
22:24 1.3 °C -3.1 °C 1025.6 hPa Calm     73% 0 mm
22:29 1.3 °C -3 °C 1025.3 hPa Calm     73% 0 mm
22:34 1.4 °C -3.1 °C 1025.6 hPa Calm     72% 0 mm
22:39 1.4 °C -3.1 °C 1025.3 hPa Calm     72% 0 mm
22:44 1.4 °C -2.9 °C 1025.3 hPa Calm     73% 0 mm
22:49 1.4 °C -2.9 °C 1025.3 hPa Calm     73% 0 mm
22:54 1.4 °C -2.9 °C 1025.3 hPa Calm     73% 0 mm
22:59 1.6 °C -2.9 °C 1025.3 hPa Calm     72% 0 mm
23:04 1.8 °C -2.9 °C 1025.3 hPa Calm     71% 0 mm
23:09 1.6 °C -3.1 °C 1025.3 hPa Calm     71% 0 mm
23:14 1.4 °C -2.9 °C 1025.3 hPa Calm     73% 0 mm
23:19 1.6 °C -2.9 °C 1025.3 hPa Calm     72% 0 mm
23:24 1.8 °C -2.9 °C 1025.3 hPa Calm     71% 0 mm
23:29 1.9 °C -2.6 °C 1025.6 hPa Calm     72% 0 mm
23:34 2 °C -2.7 °C 1025.6 hPa Calm     71% 0 mm
23:39 1.9 °C -2.8 °C 1025.6 hPa Calm     71% 0 mm
23:44 1.7 °C -2.8 °C 1025.6 hPa Calm     72% 0 mm
23:49 1.7 °C -2.8 °C 1025.6 hPa Calm     72% 0 mm
23:54 1.8 °C -2.7 °C 1025.6 hPa Calm     72% 0 mm
23:59 1.9 °C -2.8 °C 1025.6 hPa Calm     71% 0 mm
Buffalo, New York, USA
Compliments of Weather Underground - 2.5 mb